Time,TemperatureF,DewpointF,PressureIn,WindDirection,WindDirectionDegrees,WindSpeedMPH,WindSpeedGustMPH,Humidity,HourlyPrecipIn,Conditions,Clouds,dailyrainin,SoftwareType,DateUTC
2013-03-16 00:02:00,48.0,29.0,-100.00,ESE,119,5.0,8.0,47,-99.99,,,-99.99,,2013-03-16 07:02:00,
2013-03-16 00:12:00,48.0,29.0,-100.00,ESE,119,5.0,8.0,47,-99.99,,,-99.99,,2013-03-16 07:12:00,
2013-03-16 00:22:00,47.0,29.0,-100.00,ESE,121,5.0,8.0,49,-99.99,,,-99.99,,2013-03-16 07:22:00,
2013-03-16 00:32:00,48.0,30.0,-100.00,SE,126,6.0,11.0,50,-99.99,,,-99.99,,2013-03-16 07:32:00,
2013-03-16 00:42:00,48.0,30.0,-100.00,SE,126,6.0,11.0,50,-99.99,,,-99.99,,2013-03-16 07:42:00,
2013-03-16 00:52:00,49.0,30.0,-100.00,SE,136,4.0,9.0,48,-99.99,,,-99.99,,2013-03-16 07:52:00,
2013-03-16 01:02:00,48.0,30.0,-100.00,SE,137,4.0,7.0,49,-99.99,,,-99.99,,2013-03-16 08:02:00,
2013-03-16 01:12:00,48.0,30.0,-100.00,SE,137,4.0,7.0,49,-99.99,,,-99.99,,2013-03-16 08:12:00,
2013-03-16 01:22:00,45.0,28.0,-100.00,NE,38,3.0,11.0,52,-99.99,,,-99.99,,2013-03-16 08:22:00,
2013-03-16 01:32:00,44.0,28.0,-100.00,North,354,2.0,5.0,52,-99.99,,,-99.99,,2013-03-16 08:32:00,
2013-03-16 01:42:00,44.0,27.0,-100.00,North,350,2.0,5.0,51,-99.99,,,-99.99,,2013-03-16 08:42:00,
2013-03-16 01:52:00,43.0,27.0,-100.00,NE,37,4.0,6.0,52,-99.99,,,-99.99,,2013-03-16 08:52:00,
2013-03-16 02:01:00,42.0,26.0,-100.00,NNE,27,4.0,7.0,53,-99.99,,,-99.99,,2013-03-16 09:01:00,
2013-03-16 02:12:00,42.0,26.0,-100.00,NNE,27,4.0,7.0,53,-99.99,,,-99.99,,2013-03-16 09:12:00,
2013-03-16 02:22:00,43.0,28.0,-100.00,East,97,5.0,7.0,55,-99.99,,,-99.99,,2013-03-16 09:22:00,
2013-03-16 02:32:00,43.0,27.0,-100.00,ESE,120,4.0,6.0,52,-99.99,,,-99.99,,2013-03-16 09:32:00,
2013-03-16 02:42:00,43.0,27.0,-100.00,ESE,120,4.0,6.0,52,-99.99,,,-99.99,,2013-03-16 09:42:00,
2013-03-16 02:52:00,41.0,27.0,-100.00,South,189,3.0,5.0,58,-99.99,,,-99.99,,2013-03-16 09:52:00,
2013-03-16 03:03:00,44.0,27.0,-100.00,WSW,246,3.0,5.0,51,-99.99,,,-99.99,,2013-03-16 10:03:00,
2013-03-16 03:12:00,44.0,27.0,-100.00,WSW,246,3.0,5.0,51,-99.99,,,-99.99,,2013-03-16 10:12:00,
2013-03-16 03:22:00,42.0,27.0,-100.00,WSW,250,1.0,2.0,56,-99.99,,,-99.99,,2013-03-16 10:22:00,
2013-03-16 03:32:00,40.0,26.0,-100.00,NE,55,1.0,3.0,56,-99.99,,,-99.99,,2013-03-16 10:32:00,
2013-03-16 03:42:00,39.0,25.0,-100.00,NE,41,1.0,3.0,57,-99.99,,,-99.99,,2013-03-16 10:42:00,
2013-03-16 03:52:00,38.0,26.0,-100.00,NE,54,1.0,2.0,61,-99.99,,,-99.99,,2013-03-16 10:52:00,
2013-03-16 04:03:00,38.0,26.0,-100.00,ESE,104,4.0,6.0,62,-99.99,,,-99.99,,2013-03-16 11:03:00,
2013-03-16 04:12:00,38.0,26.0,-100.00,ESE,104,4.0,6.0,62,-99.99,,,-99.99,,2013-03-16 11:12:00,
2013-03-16 04:22:00,38.0,26.0,-100.00,East,97,4.0,6.0,62,-99.99,,,-99.99,,2013-03-16 11:22:00,
2013-03-16 04:32:00,38.0,24.0,-100.00,East,99,5.0,7.0,57,-99.99,,,-99.99,,2013-03-16 11:32:00,
2013-03-16 04:42:00,38.0,24.0,-100.00,East,99,5.0,7.0,57,-99.99,,,-99.99,,2013-03-16 11:42:00,
2013-03-16 04:52:00,37.0,24.0,-100.00,ENE,76,2.0,4.0,60,-99.99,,,-99.99,,2013-03-16 11:52:00,
2013-03-16 05:02:00,37.0,23.0,-100.00,ENE,73,3.0,5.0,57,-99.99,,,-99.99,,2013-03-16 12:02:00,
2013-03-16 05:12:00,37.0,23.0,-100.00,ENE,73,3.0,5.0,57,-99.99,,,-99.99,,2013-03-16 12:12:00,
2013-03-16 05:22:00,36.0,23.0,-100.00,East,93,5.0,7.0,59,-99.99,,,-99.99,,2013-03-16 12:22:00,
2013-03-16 05:32:00,35.0,23.0,-100.00,East,83,1.0,3.0,61,-99.99,,,-99.99,,2013-03-16 12:32:00,
2013-03-16 05:42:00,34.0,22.0,-100.00,East,95,1.0,3.0,61,-99.99,,,-99.99,,2013-03-16 12:42:00,
2013-03-16 05:52:00,34.0,23.0,-100.00,ESE,121,2.0,4.0,63,-99.99,,,-99.99,,2013-03-16 12:52:00,
2013-03-16 06:02:00,33.0,22.0,-100.00,East,96,1.0,4.0,64,-99.99,,,-99.99,,2013-03-16 13:02:00,
2013-03-16 06:12:00,33.0,22.0,-100.00,East,96,1.0,4.0,64,-99.99,,,-99.99,,2013-03-16 13:12:00,
2013-03-16 06:22:00,33.0,23.0,-100.00,ESE,112,4.0,5.0,67,-99.99,,,-99.99,,2013-03-16 13:22:00,
2013-03-16 06:32:00,33.0,23.0,-100.00,ESE,112,4.0,5.0,67,-99.99,,,-99.99,,2013-03-16 13:32:00,
2013-03-16 06:42:00,32.0,23.0,-100.00,SE,131,2.0,4.0,70,-99.99,,,-99.99,,2013-03-16 13:42:00,
2013-03-16 06:52:00,32.0,23.0,-100.00,ESE,114,3.0,5.0,68,-99.99,,,-99.99,,2013-03-16 13:52:00,
2013-03-16 07:02:00,32.0,23.0,-100.00,ESE,112,3.0,5.0,68,-99.99,,,-99.99,,2013-03-16 14:02:00,
2013-03-16 07:12:00,32.0,22.0,-100.00,East,99,2.0,4.0,67,-99.99,,,-99.99,,2013-03-16 14:12:00,
2013-03-16 07:22:00,32.0,22.0,-100.00,East,97,2.0,3.0,68,-99.99,,,-99.99,,2013-03-16 14:22:00,
2013-03-16 07:32:00,32.0,22.0,-100.00,East,97,2.0,3.0,68,-99.99,,,-99.99,,2013-03-16 14:32:00,
2013-03-16 07:42:00,32.0,22.0,-100.00,East,97,2.0,4.0,67,-99.99,,,-99.99,,2013-03-16 14:42:00,
2013-03-16 07:52:00,31.0,22.0,-100.00,SE,141,1.0,4.0,69,-99.99,,,-99.99,,2013-03-16 14:52:00,
2013-03-16 08:02:00,31.0,22.0,-100.00,SE,137,0.0,2.0,70,-99.99,,,-99.99,,2013-03-16 15:02:00,
2013-03-16 08:12:00,32.0,23.0,-100.00,ENE,76,2.0,3.0,68,-99.99,,,-99.99,,2013-03-16 15:12:00,
2013-03-16 08:22:00,35.0,23.0,-100.00,East,82,3.0,6.0,61,-99.99,,,-99.99,,2013-03-16 15:22:00,
2013-03-16 08:33:00,35.0,23.0,-100.00,East,82,3.0,6.0,61,-99.99,,,-99.99,,2013-03-16 15:33:00,
2013-03-16 08:43:00,37.0,24.0,-100.00,East,92,2.0,4.0,59,-99.99,,,-99.99,,2013-03-16 15:43:00,
2013-03-16 08:53:00,39.0,25.0,-100.00,NE,49,0.0,1.0,57,-99.99,,,-99.99,,2013-03-16 15:53:00,
2013-03-16 09:02:00,39.0,25.0,-100.00,ESE,102,0.0,1.0,56,-99.99,,,-99.99,,2013-03-16 16:02:00,
2013-03-16 09:12:00,41.0,25.0,-100.00,SSE,154,0.0,2.0,53,-99.99,,,-99.99,,2013-03-16 16:12:00,
2013-03-16 09:22:00,42.0,25.0,-100.00,SW,224,0.0,1.0,51,-99.99,,,-99.99,,2013-03-16 16:22:00,
2013-03-16 09:33:00,42.0,25.0,-100.00,SW,224,0.0,1.0,51,-99.99,,,-99.99,,2013-03-16 16:33:00,
2013-03-16 09:42:00,43.0,25.0,-100.00,WNW,291,2.0,4.0,48,-99.99,,,-99.99,,2013-03-16 16:42:00,
2013-03-16 09:53:00,46.0,24.0,-100.00,NW,322,1.0,2.0,42,-99.99,,,-99.99,,2013-03-16 16:53:00,
2013-03-16 10:02:00,48.0,24.0,-100.00,NW,316,0.0,2.0,39,-99.99,,,-99.99,,2013-03-16 17:02:00,
2013-03-16 10:12:00,48.0,24.0,-100.00,NW,316,0.0,2.0,39,-99.99,,,-99.99,,2013-03-16 17:12:00,
2013-03-16 10:22:00,49.0,23.0,-100.00,ESE,107,0.0,3.0,36,-99.99,,,-99.99,,2013-03-16 17:22:00,
2013-03-16 10:32:00,49.0,23.0,-100.00,ESE,107,0.0,3.0,36,-99.99,,,-99.99,,2013-03-16 17:32:00,
2013-03-16 10:42:00,50.0,23.0,-100.00,SW,236,3.0,6.0,35,-99.99,,,-99.99,,2013-03-16 17:42:00,
2013-03-16 10:53:00,51.0,23.0,-100.00,West,272,2.0,5.0,33,-99.99,,,-99.99,,2013-03-16 17:53:00,
2013-03-16 11:02:00,52.0,24.0,-100.00,West,278,2.0,6.0,33,-99.99,,,-99.99,,2013-03-16 18:02:00,
2013-03-16 11:13:00,52.0,24.0,-100.00,West,278,2.0,6.0,33,-99.99,,,-99.99,,2013-03-16 18:13:00,
2013-03-16 11:22:00,53.0,22.0,-100.00,NW,320,2.0,4.0,30,-99.99,,,-99.99,,2013-03-16 18:22:00,
2013-03-16 11:32:00,55.0,22.0,-100.00,NNW,342,2.0,6.0,27,-99.99,,,-99.99,,2013-03-16 18:32:00,
2013-03-16 11:42:00,55.0,22.0,-100.00,NNW,342,2.0,6.0,27,-99.99,,,-99.99,,2013-03-16 18:42:00,
2013-03-16 11:53:00,56.0,22.0,-100.00,NW,312,2.0,6.0,26,-99.99,,,-99.99,,2013-03-16 18:53:00,
2013-03-16 12:02:00,56.0,22.0,-100.00,NW,316,2.0,6.0,26,-99.99,,,-99.99,,2013-03-16 19:02:00,
2013-03-16 12:12:00,58.0,19.0,-100.00,North,1,3.0,7.0,22,-99.99,,,-99.99,,2013-03-16 19:12:00,
2013-03-16 12:22:00,60.0,18.0,-100.00,WNW,298,4.0,9.0,19,-99.99,,,-99.99,,2013-03-16 19:22:00,
2013-03-16 12:32:00,60.0,18.0,-100.00,WNW,298,4.0,9.0,19,-99.99,,,-99.99,,2013-03-16 19:32:00,
2013-03-16 12:42:00,60.0,18.0,-100.00,NW,312,3.0,7.0,19,-99.99,,,-99.99,,2013-03-16 19:42:00,
2013-03-16 12:52:00,62.0,15.0,-100.00,ENE,58,2.0,7.0,16,-99.99,,,-99.99,,2013-03-16 19:52:00,
2013-03-16 13:02:00,62.0,17.0,-100.00,East,95,2.0,5.0,17,-99.99,,,-99.99,,2013-03-16 20:02:00,
2013-03-16 13:12:00,63.0,15.0,-100.00,SE,144,4.0,8.0,15,-99.99,,,-99.99,,2013-03-16 20:12:00,
2013-03-16 13:21:00,65.0,13.0,-100.00,South,184,2.0,6.0,13,-99.99,,,-99.99,,2013-03-16 20:21:00,
2013-03-16 13:32:00,64.0,10.0,-100.00,South,175,3.0,6.0,12,-99.99,,,-99.99,,2013-03-16 20:32:00,
2013-03-16 13:42:00,64.0,10.0,-100.00,South,175,3.0,6.0,12,-99.99,,,-99.99,,2013-03-16 20:42:00,
2013-03-16 13:52:00,65.0,11.0,-100.00,East,99,3.0,9.0,12,-99.99,,,-99.99,,2013-03-16 20:52:00,
2013-03-16 14:02:00,66.0,10.0,-100.00,ESE,113,3.0,9.0,11,-99.99,,,-99.99,,2013-03-16 21:02:00,
2013-03-16 14:12:00,65.0,9.0,-100.00,SE,145,3.0,10.0,11,-99.99,,,-99.99,,2013-03-16 21:12:00,
2013-03-16 14:22:00,66.0,10.0,-100.00,WSW,244,12.0,24.0,11,-99.99,,,-99.99,,2013-03-16 21:22:00,
2013-03-16 14:32:00,66.0,10.0,-100.00,WSW,244,12.0,24.0,11,-99.99,,,-99.99,,2013-03-16 21:32:00,
2013-03-16 14:43:00,66.0,10.0,-100.00,West,265,15.0,26.0,11,-99.99,,,-99.99,,2013-03-16 21:43:00,
2013-03-16 14:52:00,66.0,12.0,-100.00,West,261,15.0,24.0,12,-99.99,,,-99.99,,2013-03-16 21:52:00,
2013-03-16 15:03:00,64.0,12.0,-100.00,WSW,243,13.0,19.0,13,-99.99,,,-99.99,,2013-03-16 22:03:00,
2013-03-16 15:12:00,64.0,12.0,-100.00,WSW,243,13.0,19.0,13,-99.99,,,-99.99,,2013-03-16 22:12:00,
2013-03-16 15:22:00,64.0,14.0,-100.00,SW,236,12.0,23.0,14,-99.99,,,-99.99,,2013-03-16 22:22:00,
2013-03-16 15:32:00,65.0,15.0,-100.00,WSW,251,13.0,22.0,14,-99.99,,,-99.99,,2013-03-16 22:32:00,
2013-03-16 15:42:00,65.0,15.0,-100.00,WSW,251,13.0,22.0,14,-99.99,,,-99.99,,2013-03-16 22:42:00,
2013-03-16 15:52:00,65.0,15.0,-100.00,WSW,251,13.0,22.0,14,-99.99,,,-99.99,,2013-03-16 22:52:00,
2013-03-16 16:02:00,64.0,16.0,-100.00,SW,220,11.0,19.0,15,-99.99,,,-99.99,,2013-03-16 23:02:00,
2013-03-16 16:12:00,64.0,16.0,-100.00,SW,220,11.0,19.0,15,-99.99,,,-99.99,,2013-03-16 23:12:00,
2013-03-16 16:22:00,64.0,18.0,-100.00,SW,226,11.0,21.0,17,-99.99,,,-99.99,,2013-03-16 23:22:00,
2013-03-16 16:32:00,64.0,18.0,-100.00,SW,226,11.0,21.0,17,-99.99,,,-99.99,,2013-03-16 23:32:00,
2013-03-16 16:42:00,65.0,16.0,-100.00,WSW,239,9.0,16.0,15,-99.99,,,-99.99,,2013-03-16 23:42:00,
2013-03-16 16:52:00,65.0,16.0,-100.00,WSW,239,9.0,16.0,15,-99.99,,,-99.99,,2013-03-16 23:52:00,
2013-03-16 17:01:00,65.0,16.0,-100.00,WSW,239,9.0,16.0,15,-99.99,,,-99.99,,2013-03-17 00:01:00,
2013-03-16 17:22:00,63.0,16.0,-100.00,WSW,251,9.0,18.0,16,-99.99,,,-99.99,,2013-03-17 00:22:00,
2013-03-16 17:32:00,63.0,16.0,-100.00,WSW,251,9.0,18.0,16,-99.99,,,-99.99,,2013-03-17 00:32:00,
2013-03-16 17:42:00,63.0,16.0,-100.00,WSW,251,9.0,18.0,16,-99.99,,,-99.99,,2013-03-17 00:42:00,
2013-03-16 18:02:00,62.0,17.0,-100.00,WSW,251,9.0,18.0,17,-99.99,,,-99.99,,2013-03-17 01:02:00,
2013-03-16 18:12:00,62.0,17.0,-100.00,WSW,251,9.0,18.0,17,-99.99,,,-99.99,,2013-03-17 01:12:00,
2013-03-16 18:22:00,61.0,21.0,-100.00,WSW,256,8.0,16.0,21,-99.99,,,-99.99,,2013-03-17 01:22:00,
2013-03-16 18:32:00,61.0,21.0,-100.00,WSW,256,8.0,16.0,21,-99.99,,,-99.99,,2013-03-17 01:32:00,
2013-03-16 18:42:00,60.0,20.0,-100.00,WNW,282,8.0,15.0,21,-99.99,,,-99.99,,2013-03-17 01:42:00,
2013-03-16 18:53:00,60.0,20.0,-100.00,WNW,282,8.0,15.0,21,-99.99,,,-99.99,,2013-03-17 01:53:00,
2013-03-16 19:02:00,59.0,19.0,-100.00,West,268,4.0,10.0,21,-99.99,,,-99.99,,2013-03-17 02:02:00,
2013-03-16 19:12:00,59.0,19.0,-100.00,West,268,4.0,10.0,21,-99.99,,,-99.99,,2013-03-17 02:12:00,
2013-03-16 19:22:00,57.0,20.0,-100.00,SE,134,5.0,14.0,23,-99.99,,,-99.99,,2013-03-17 02:22:00,
2013-03-16 19:33:00,57.0,20.0,-100.00,SE,134,5.0,14.0,23,-99.99,,,-99.99,,2013-03-17 02:33:00,
2013-03-16 19:42:00,56.0,19.0,-100.00,NNW,335,6.0,14.0,24,-99.99,,,-99.99,,2013-03-17 02:42:00,
2013-03-16 19:52:00,56.0,19.0,-100.00,NNW,335,6.0,14.0,24,-99.99,,,-99.99,,2013-03-17 02:52:00,
2013-03-16 20:02:00,55.0,18.0,-100.00,North,353,11.0,18.0,23,-99.99,,,-99.99,,2013-03-17 03:02:00,
2013-03-16 20:12:00,55.0,18.0,-100.00,North,353,11.0,18.0,23,-99.99,,,-99.99,,2013-03-17 03:12:00,
2013-03-16 20:22:00,54.0,20.0,-100.00,NNW,342,10.0,19.0,26,-99.99,,,-99.99,,2013-03-17 03:22:00,
2013-03-16 20:33:00,53.0,21.0,-100.00,NW,306,10.0,27.0,28,-99.99,,,-99.99,,2013-03-17 03:33:00,
2013-03-16 20:42:00,53.0,21.0,-100.00,NW,323,12.0,25.0,28,-99.99,,,-99.99,,2013-03-17 03:42:00,
2013-03-16 20:52:00,53.0,21.0,-100.00,NW,323,12.0,25.0,28,-99.99,,,-99.99,,2013-03-17 03:52:00,
2013-03-16 21:02:00,53.0,21.0,-100.00,NNE,18,11.0,34.0,28,-99.99,,,-99.99,,2013-03-17 04:02:00,
2013-03-16 21:12:00,53.0,22.0,-100.00,NNW,344,11.0,29.0,30,-99.99,,,-99.99,,2013-03-17 04:12:00,
2013-03-16 21:23:00,53.0,21.0,-100.00,NE,56,13.0,37.0,28,-99.99,,,-99.99,,2013-03-17 04:23:00,
2013-03-16 21:32:00,53.0,21.0,-100.00,NE,56,13.0,37.0,28,-99.99,,,-99.99,,2013-03-17 04:32:00,
2013-03-16 21:42:00,53.0,21.0,-100.00,NNE,31,12.0,31.0,28,-99.99,,,-99.99,,2013-03-17 04:42:00,
2013-03-16 21:53:00,53.0,21.0,-100.00,NNE,31,12.0,31.0,28,-99.99,,,-99.99,,2013-03-17 04:53:00,
2013-03-16 22:02:00,52.0,20.0,-100.00,NNW,337,10.0,21.0,28,-99.99,,,-99.99,,2013-03-17 05:02:00,
2013-03-16 22:12:00,52.0,20.0,-100.00,West,281,10.0,18.0,28,-99.99,,,-99.99,,2013-03-17 05:12:00,
2013-03-16 22:22:00,52.0,19.0,-100.00,WNW,301,14.0,24.0,27,-99.99,,,-99.99,,2013-03-17 05:22:00,
2013-03-16 22:32:00,52.0,19.0,-100.00,WNW,301,14.0,24.0,27,-99.99,,,-99.99,,2013-03-17 05:32:00,
2013-03-16 22:42:00,50.0,19.0,-100.00,WSW,256,15.0,26.0,29,-99.99,,,-99.99,,2013-03-17 05:42:00,
2013-03-16 22:52:00,50.0,19.0,-100.00,WSW,256,15.0,26.0,29,-99.99,,,-99.99,,2013-03-17 05:52:00,
2013-03-16 23:02:00,50.0,20.0,-100.00,SSE,160,4.0,13.0,30,-99.99,,,-99.99,,2013-03-17 06:02:00,
2013-03-16 23:12:00,48.0,20.0,-100.00,SSE,152,2.0,5.0,33,-99.99,,,-99.99,,2013-03-17 06:12:00,
2013-03-16 23:22:00,48.0,20.0,-100.00,SSE,152,2.0,5.0,33,-99.99,,,-99.99,,2013-03-17 06:22:00,
2013-03-16 23:32:00,54.0,15.0,-100.00,WSW,239,11.0,29.0,21,-99.99,,,-99.99,,2013-03-17 06:32:00,
2013-03-16 23:42:00,50.0,20.0,-100.00,ESE,109,7.0,13.0,30,-99.99,,,-99.99,,2013-03-17 06:42:00,
2013-03-16 23:52:00,50.0,20.0,-100.00,ESE,109,7.0,13.0,30,-99.99,,,-99.99,,2013-03-17 06:52:00,